Theta_e
329 328 326 324 322 322 322 322 322 322 322 322 323 322 322 322 321 321 320 319 318 317 316 316 317 317 316 316 317 318 319 320 321 322 322 322 322 322 322 322 322 321
330 329 327 325 324 323 322 321 321 322 322 322 322 323 322 322 322 321 320 320 320 319 317 316 316 316 316 316 315 315 316 317 318 320 320 321 321 321 322 322 322 322
331 330 328 326 325 324 323 322 321 322 322 323 322 322 322 322 322 322 321 321 321 320 319 317 316 315 315 315 314 314 314 314 314 315 316 317 319 320 321 321 321 321
332 331 329 328 327 326 326 324 323 321 321 322 322 322 323 323 323 323 322 322 321 321 320 319 318 317 316 315 313 313 314 314 314 313 312 314 315 316 318 318 319 318
333 332 331 330 328 328 327 326 325 323 322 321 322 322 323 323 323 323 323 323 322 322 322 321 321 320 319 318 316 314 313 314 315 313 312 312 313 314 315 315 315 315
334 333 332 331 330 329 328 327 326 326 324 322 322 322 322 322 323 323 324 323 323 323 323 322 322 322 321 321 320 318 316 315 316 315 314 313 313 313 314 314 313 314
334 334 333 332 332 330 329 328 328 327 326 324 323 322 322 322 323 323 323 324 323 323 323 323 322 322 322 322 322 321 320 319 319 318 317 315 314 313 314 313 312 313
334 335 334 333 332 332 330 329 329 328 327 326 326 324 323 323 323 323 323 323 324 323 323 323 322 322 322 322 322 322 322 321 321 321 320 318 316 315 314 313 313 313
334 334 334 333 333 333 332 331 330 329 328 327 327 326 325 324 323 323 323 322 323 323 323 323 323 322 322 322 322 322 322 322 322 322 321 321 320 319 317 315 314 313
333 334 334 334 334 334 333 332 331 330 329 328 328 328 327 326 325 325 324 323 323 322 323 323 323 323 323 322 322 322 322 322 323 322 322 322 321 321 320 319 317 315
335 335 335 335 335 334 334 334 332 331 330 329 328 328 328 327 326 326 325 325 324 323 322 322 322 323 322 322 322 322 322 322 323 323 323 323 322 322 321 320 320 319
336 335 335 334 333 333 333 333 333 332 332 330 329 329 329 329 328 327 326 325 325 324 324 322 322 322 322 322 322 322 322 323 323 323 323 323 323 323 322 321 321 321
335 335 335 334 333 333 333 333 332 332 332 331 330 330 330 330 329 328 327 326 325 325 325 324 323 322 322 322 323 323 323 323 323 323 323 323 323 323 323 323 322 321
335 334 334 334 334 333 333 333 332 331 331 330 330 330 329 330 329 329 328 327 326 326 325 325 325 324 323 323 322 323 323 323 323 323 323 323 324 323 323 323 323 323
335 335 334 334 334 333 333 332 332 331 331 330 330 329 329 329 329 329 329 327 327 326 326 326 325 325 324 323 322 322 322 322 322 323 323 323 323 323 323 322 323 323
333 334 334 333 333 332 332 332 332 331 330 330 330 329 329 329 329 329 328 328 327 327 327 326 325 325 325 323 322 323 323 322 322 322 322 322 322 322 322 322 322 322
333 333 333 332 332 331 331 331 331 331 331 331 331 330 329 329 329 329 329 328 328 327 327 326 325 324 324 323 322 323 323 323 322 322 322 322 322 322 322 322 322 322
333 333 332 331 330 330 330 330 330 331 331 330 330 329 329 329 328 328 328 328 328 327 326 326 326 325 324 324 323 323 323 323 323 323 322 322 323 323 322 322 321 321
332 332 332 332 331 331 331 330 330 330 330 330 329 328 328 328 328 328 327 327 327 327 326 325 325 325 324 324 324 323 323 323 323 323 323 322 323 323 323 323 322 321
332 332 332 332 332 331 330 330 330 330 330 329 329 328 328 327 327 328 327 327 327 327 326 325 325 325 325 324 324 323 323 323 323 323 323 323 323 323 323 324 324 323
331 331 331 331 331 331 330 329 330 330 329 329 329 328 328 328 327 327 327 327 327 327 326 325 325 325 325 324 324 323 323 323 323 323 323 323 323 323 323 323 323 324
329 329 330 330 330 330 330 330 330 329 329 329 329 328 327 327 326 326 326 325 325 325 325 325 324 324 324 324 324 323 323 323 323 322 322 322 322 322 322 322 322 322
327 327 328 328 328 329 329 328 329 328 327 327 326 325 325 325 323 323 322 323 323 323 322 322 322 321 321 322 322 322 323 322 322 321 321 321 321 321 321 321 321 321
325 325 326 326 326 327 327 327 327 326 325 324 323 322 322 321 320 319 319 319 318 317 318 319 317 316 317 318 319 319 320 320 320 320 320 320 321 321 320 320 320 321
323 323 323 324 324 324 324 324 325 325 324 323 322 321 321 320 319 318 317 316 314 313 313 314 313 313 313 314 315 315 316 317 318 318 318 319 319 320 320 320 320 320
320 321 321 321 321 322 322 322 323 323 323 322 321 321 320 319 318 317 316 315 314 313 311 311 311 311 311 312 312 313 313 314 314 314 314 316 317 317 318 317 317 316
Wind_Speed
13 12 12 11 11 10 10 11 11 12 12 11 12 12 11 10 10 9 9 9 8 7 8 9 8 9 10 10 8 9 9 8 8 9 10 11 11 12 13 14 14 14
15 14 12 12 13 11 10 10 8 7 10 11 12 11 9 9 10 9 8 9 8 8 10 9 9 9 9 10 10 11 11 11 10 9 10 12 12 12 13 14 14 14
17 15 13 12 14 14 12 11 9 9 9 9 11 11 10 10 10 8 8 9 8 8 10 10 9 9 9 9 10 11 11 12 12 12 12 12 13 14 15 15 16 16
19 16 15 15 15 15 13 10 11 12 12 10 10 11 12 11 11 10 9 9 9 9 9 10 9 8 9 10 10 11 11 10 11 13 14 14 14 14 15 16 17 18
20 18 18 17 15 14 13 13 12 13 15 15 13 12 13 13 12 12 12 11 12 12 12 12 11 10 10 10 10 11 11 11 11 12 13 15 15 15 15 16 17 18
19 20 19 18 15 14 15 16 14 14 16 19 18 15 15 16 15 15 14 13 13 14 15 15 14 14 14 13 12 12 12 11 11 11 13 14 15 15 15 16 17 17
19 21 21 19 17 17 17 17 16 15 15 17 19 18 18 18 17 16 15 15 15 15 16 16 17 17 16 15 15 14 14 13 12 12 13 14 14 15 15 15 16 17
20 20 20 18 18 18 18 17 17 16 16 15 15 17 19 19 17 17 16 17 17 17 17 17 17 17 18 18 17 16 15 15 14 14 14 14 14 15 15 15 16 17
17 16 14 14 15 16 16 16 16 15 15 15 14 14 16 17 18 18 17 17 18 19 18 18 18 17 18 19 18 18 18 17 16 16 16 16 15 15 16 16 17 18
13 11 8 8 10 12 13 15 18 17 15 15 15 13 14 16 17 18 17 17 18 19 19 19 19 20 20 19 19 19 19 18 18 19 18 18 18 17 17 17 17 19
9 8 7 8 10 11 12 13 16 18 18 17 17 16 16 17 17 17 16 17 16 16 19 20 21 22 22 21 20 20 20 20 19 20 20 20 20 20 20 20 19 19
8 9 10 9 11 12 12 12 13 15 16 17 18 17 17 18 18 17 17 17 18 18 20 21 21 22 23 23 22 21 21 21 21 21 21 21 20 20 21 21 21 21
8 9 10 11 11 11 10 10 10 12 14 15 17 18 18 19 20 20 20 19 19 20 22 23 21 19 19 19 19 21 22 22 22 23 23 23 24 23 21 20 21 21
9 8 8 9 10 9 9 8 9 11 12 14 16 17 19 20 20 21 22 21 19 20 23 24 20 15 12 9 9 14 19 22 23 24 23 22 22 23 22 21 22 23
8 8 7 7 6 7 7 8 9 11 11 12 14 15 17 19 20 20 21 21 22 22 20 18 15 14 16 13 9 12 17 21 23 23 22 21 20 20 21 22 23 24
8 8 6 5 4 5 7 8 10 12 11 12 13 14 14 16 18 19 20 19 21 22 20 17 15 15 17 17 16 17 18 19 20 19 19 20 20 20 21 21 22 22
10 10 8 6 5 4 5 7 9 9 10 10 12 12 13 14 15 16 16 16 17 19 20 20 20 19 19 20 23 23 21 20 20 19 19 19 19 21 21 22 22 24
13 13 12 10 8 7 6 5 6 6 7 8 9 10 10 11 12 14 14 14 14 14 15 16 18 19 20 23 26 27 25 24 23 22 21 20 18 18 19 20 21 22
14 14 13 12 11 9 8 7 6 7 8 7 8 8 9 9 11 14 15 14 13 12 13 15 16 17 18 20 23 25 25 26 26 25 24 23 22 20 20 21 22 23
14 14 12 10 10 9 8 8 9 9 9 9 9 9 9 9 11 13 14 14 14 12 13 15 15 15 15 16 18 20 21 23 25 26 26 26 25 24 23 23 23 24
14 14 13 12 11 10 9 10 10 10 10 12 11 9 8 8 9 11 12 12 11 11 10 11 11 11 13 14 15 17 18 20 20 22 23 25 25 24 23 23 23 23
13 14 14 14 14 13 12 12 12 11 12 12 11 10 10 9 9 10 10 9 9 8 7 6 7 8 9 11 13 14 15 16 16 17 19 21 22 22 22 21 22 23
14 14 14 14 15 14 14 14 14 14 14 13 12 14 14 13 13 12 12 11 10 9 7 6 7 9 10 10 11 13 14 15 16 17 17 18 20 21 20 20 20 20
14 14 14 14 15 14 14 15 15 16 17 17 17 17 17 16 16 15 16 15 15 14 11 8 10 13 12 11 11 12 13 14 15 15 16 18 19 20 20 19 19 17
15 15 15 15 14 14 14 14 14 14 16 18 18 16 16 17 17 18 18 18 20 22 20 16 16 19 18 16 14 13 11 11 11 11 13 14 15 15 14 13 11 9
15 16 16 15 14 12 12 12 13 13 14 15 15 13 13 14 15 16 17 16 18 22 25 23 21 21 21 21 20 18 17 13 10 9 10 11 11 12 12 10 9 8
Wind_Direction
206 205 204 201 208 232 235 218 204 197 202 208 207 210 219 228 236 229 210 200 201 209 216 219 224 227 225 230 235 221 215 222 229 233 233 237 243 242 242 245 247 247
211 210 208 199 194 211 234 238 236 212 199 206 213 218 226 240 249 245 223 210 210 216 219 217 220 226 225 230 237 232 227 227 225 229 234 238 240 241 241 241 244 245
214 213 210 205 199 203 211 214 224 233 223 214 214 217 222 238 254 256 231 221 232 230 218 211 213 226 230 230 233 232 233 236 233 231 232 236 237 238 241 242 244 246
214 215 213 212 206 206 210 206 202 213 224 227 225 218 217 228 242 248 238 225 231 239 232 218 209 219 233 236 235 230 227 234 240 237 233 234 237 237 238 239 242 244
214 215 218 220 214 207 209 213 209 208 212 215 218 220 221 227 235 242 242 231 224 228 234 233 224 221 226 231 235 233 231 236 243 244 239 236 236 237 238 239 240 241
216 213 217 222 222 215 212 216 219 217 212 206 207 214 219 223 228 234 238 238 232 228 229 230 230 226 223 223 227 227 228 235 244 247 246 243 240 240 240 240 240 239
221 215 214 219 221 221 220 219 222 223 217 211 209 212 217 220 224 229 234 237 238 237 235 232 230 229 225 223 225 225 223 227 236 242 245 245 243 242 243 244 244 241
226 219 213 217 222 226 227 224 227 228 224 226 225 218 217 218 221 226 229 233 236 238 243 243 239 235 232 227 223 224 227 228 230 235 241 245 243 240 243 245 246 246
235 231 223 223 226 231 235 235 239 237 227 234 243 235 225 221 224 230 230 231 234 235 240 247 249 246 243 236 227 223 227 231 236 239 240 243 246 244 245 245 244 244
243 245 249 251 239 235 236 238 244 247 239 237 244 248 243 237 238 242 242 239 236 234 236 241 246 249 249 247 240 233 231 233 239 243 242 242 243 246 249 250 247 244
238 243 259 269 261 254 252 250 252 254 252 248 247 250 253 252 250 249 251 253 250 245 244 242 241 242 243 245 247 247 243 240 241 244 246 246 243 243 246 249 250 250
235 241 246 252 259 258 259 264 267 266 263 258 253 252 254 256 256 253 251 253 255 255 253 251 245 241 240 241 243 247 248 247 248 248 248 250 252 252 250 248 249 250
248 249 244 242 249 251 247 256 269 273 272 268 261 256 255 257 259 258 254 251 251 255 258 259 256 249 246 245 243 247 249 248 248 249 248 249 253 257 260 260 258 255
264 266 261 253 255 253 249 256 269 272 270 269 266 263 261 263 263 260 257 254 255 260 263 264 263 260 260 262 255 256 261 260 255 250 248 247 248 251 258 264 267 267
289 285 275 268 269 263 265 274 275 269 265 261 261 260 262 266 266 265 266 264 260 262 266 268 269 271 272 270 266 269 275 276 270 260 252 250 250 252 257 261 265 267
325 314 299 296 303 293 287 285 278 274 272 268 265 262 264 268 269 271 274 269 259 258 264 269 270 272 270 261 256 264 276 281 281 277 268 260 256 256 259 262 264 266
354 354 354 350 344 329 303 286 281 282 280 277 279 277 275 278 283 283 280 275 271 270 272 273 271 269 265 256 252 259 271 282 286 287 284 276 265 258 257 259 262 266
8 12 16 11 4 359 340 313 306 313 306 297 299 301 296 296 300 298 294 297 296 291 288 283 275 272 268 262 259 261 267 277 285 288 287 285 278 269 264 262 264 268
15 17 23 23 23 20 5 352 3 7 351 332 323 323 321 316 303 294 294 303 303 295 293 289 282 280 278 272 270 270 270 272 278 284 286 283 279 277 274 270 268 269
24 23 26 28 32 31 12 5 18 20 7 356 350 339 328 317 306 300 301 305 306 298 292 290 290 293 292 286 280 279 278 277 277 279 282 281 280 278 278 277 275 275
25 26 28 31 36 34 21 20 26 23 15 13 9 0 345 333 332 331 325 323 324 318 305 301 305 302 296 292 287 283 281 282 283 282 281 281 280 278 278 278 278 278
26 27 28 30 34 35 30 29 29 22 17 13 14 21 21 19 22 17 6 360 356 350 343 338 333 321 307 297 292 289 286 286 287 287 285 284 284 282 283 283 282 282
32 31 32 32 35 36 36 35 33 33 33 32 34 41 45 47 48 46 43 37 29 26 29 21 359 344 330 314 300 294 291 292 293 292 290 290 289 289 291 291 293 295
39 36 37 39 40 40 40 39 41 45 48 49 52 53 53 55 56 54 53 51 46 43 45 41 23 10 357 342 325 310 296 292 292 291 290 289 289 289 290 289 288 289
39 37 37 40 43 45 47 45 45 53 56 53 54 56 55 55 58 59 58 56 50 47 47 46 37 28 22 16 7 355 338 318 305 299 299 301 302 302 302 299 294 291
36 35 35 35 34 39 53 59 56 59 64 60 57 59 61 62 63 64 61 58 52 47 44 42 38 33 31 28 25 21 17 12 7 354 337 330 330 335 342 346 346 340